Location: Stara Lesna
(49.1528°N, 20.2911°E)
Time: 16:31:37
(UTC+02:00)

CZ-2C R/B - Pass Details

Date: 21 September 2019
Orbit: 669 x 784 km, 98.1° (Epoch: 17 October)

Event Time Altitude Azimuth Distance (km) Brightness Sun altitude
Rises 04:53:52 0° 17° (NNE) 3,138 6.2 -15.1°
Reaches altitude 10° 04:56:10 10° 22° (NNE) 2,231 5.5 -14.8°
Maximum altitude 05:01:00 56° 101° (E) 886 3.2 -14.0°
Drops below altitude 10° 05:05:56 10° 179° (S) 2,284 4.8 -13.2°
Sets 05:08:18 0° 184° (S) 3,220 5.5 -12.9°
